[[{"header":{"parameterUnit":"m.s-1","parameterCategory":1,"la1":30.2991,"la2":30.254,"lo1":-89.0895,"lo2":-89.0444,"dy":0.0017,"dx":0.0017,"nx":28,"ny":28,"refTime":"2024-02-25T03:00:00:Z","depth":0,"parameterNumber":2,"parameterNumberName":"U-component_of_WINDS"},"data":[0,0,0,0,0,0,0,0,0,0,0,0,0,0,0,0,0,0,0,0,0,0,0,0,0,0,0,0,0,0,0,0,0,0,0,0,0,0,0,0,0,0,0,0,0,0,0,0,0,0,0,0,0,0,0,0,0,0,-3.0266,-3.0267,0,-3.0357,-3.0358,-3.036,-3.0352,-3.0351,-3.0349,-3.0348,-3.0441,-3.0445,-3.0449,0,0,0,0,0,0,0,0,0,0,0,0,0,-3.0085,-3.0088,-3.0265,-3.0267,-3.0268,-3.0357,-3.0359,-3.036,-3.0352,-3.0351,-3.0349,-3.0347,-3.044,-3.0444,-3.0449,0,0,0,0,0,0,0,0,0,0,0,0,0,-3.0169,-3.0089,-3.0265,-3.0275,-3.0277,-3.0357,-3.0359,-3.036,-3.0353,-3.035,-3.0348,-3.0346,-3.0439,-3.0444,-3.045,-3.0526,0,0,-3.0467,-3.0469,0,0,0,0,0,0,0,0,-3.0164,-3.0175,-3.0272,-3.0274,-3.0276,-3.0341,-3.0329,-3.0416,-3.0353,-3.0324,-3.0348,-3.0345,-3.041,-3.0418,-3.0439,-3.0531,-3.0535,-3.0467,-3.0471,-3.0473,-3.0475,0,0,0,0,0,0,0,-3.0158,-3.0171,-3.0302,-3.0274,-3.0276,-3.0275,-3.0285,-3.0346,-3.0377,-3.0326,-3.0326,-3.0337,-3.041,-3.0434,-3.0441,-3.0536,-3.0467,-3.0472,-3.0476,-3.0478,-3.0698,-3.0701,0,0,0,0,0,0,-3.015,-3.0167,-3.0299,-3.0305,-3.0214,-3.028,-3.0291,-3.0322,-3.0376,-3.0383,-3.0338,-3.0336,-3.0425,-3.0435,-3.0445,-3.054,-3.0473,-3.0479,-3.0482,-3.0696,-3.0699,-3.0701,0,0,0,0,0,0,-3.0146,-3.0162,-3.0295,-3.0236,-3.0253,-3.0285,-3.0321,-3.0325,-3.0349,-3.0386,-3.0391,-3.0357,-3.0424,-3.0437,-3.0507,-3.0543,-3.0481,-3.0486,-3.0693,-3.0697,-3.07,-3.0729,0,0,0,0,0,0,-3.0141,-3.0161,-3.0189,-3.0236,-3.0256,-3.0355,-3.0323,-3.0329,-3.0359,-3.0356,-3.0404,-3.041,-3.0423,-3.0498,-3.0512,-3.0549,-3.0491,-3.069,-3.0695,-3.0699,-3.0725,-3.0734,-3.0741,0,0,0,0,0,-3.0135,-3.0193,-3.0191,-3.0207,-3.0292,-3.0357,-3.0368,-3.0382,-3.0362,-3.0391,-3.0416,-3.0409,-3.0537,-3.0506,-3.0521,-3.0561,-3.0688,-3.0693,-3.0699,-3.0722,-3.0732,-3.074,0,0,0,0,0,0,-3.0148,-3.0199,-3.0197,-3.0273,-3.0311,-3.0356,-3.0393,-3.0392,-3.0437,-3.0433,-3.0448,-3.0459,-3.053,-3.0552,-3.0517,-3.0639,-3.061,-3.0618,-3.0622,-3.0632,-3.0639,-3.0632,-3.0495,0,0,0,0,0,-3.0161,-3.0209,-3.0251,-3.0313,-3.0333,-3.036,-3.0389,-3.0397,-3.0437,-3.0453,-3.0482,-3.0521,-3.057,-3.0602,-3.065,-3.0729,-3.074,-3.0764,-3.0772,-3.0778,-3.0785,-3.0831,-3.0843,-3.072,-3.0719,-3.0719,0,0,-3.0185,-3.0219,-3.0248,-3.0317,-3.0347,-3.0398,-3.0373,-3.0427,-3.0465,-3.0461,-3.0529,-3.0552,-3.0597,-3.0673,-3.0708,-3.0694,-3.0822,-3.0785,-3.0789,-3.0794,-3.0838,-3.085,-3.086,-3.0723,-3.0723,-3.0722,0,0,-3.0256,-3.0286,-3.0343,-3.0375,-3.0422,-3.044,-3.0454,-3.05,-3.0516,-3.0585,-3.0584,-3.0629,-3.0713,-3.0746,-3.0774,-3.0862,-3.0857,-3.0877,-3.0916,-3.0961,-3.0971,-3.098,-3.1012,-3.1024,-3.0884,-3.0884,-3.0884,0,-3.0281,-3.0357,-3.0372,-3.0427,-3.0458,-3.0458,-3.0516,-3.0546,-3.0606,-3.0628,-3.0612,-3.0719,-3.0749,-3.0834,-3.0856,-3.0878,-3.0895,-3.0871,-3.0968,-3.0977,-3.0985,-3.1017,-3.1029,-3.0886,-3.0886,-3.0886,-3.0886,0,-3.0386,-3.0439,-3.0479,-3.0538,-3.0574,-3.063,-3.0655,-3.0689,-3.0695,-3.0715,-3.0787,-3.0824,-3.088,-3.0901,-3.0906,-3.0987,-3.0977,-3.0965,-3.0935,-3.0999,-3.1029,-3.1041,-3.0889,-3.0888,-3.0888,-3.0887,0,0,-3.0465,-3.0535,-3.0549,-3.0578,-3.0631,-3.0673,-3.073,-3.0786,-3.0816,-3.0858,-3.0907,-3.098,-3.097,-3.1002,-3.1011,-3.1051,-3.112,-3.1033,-3.1035,-3.1049,-3.1214,-3.1223,-3.1236,-3.1118,-3.112,-3.1122,-3.121,0,-3.0542,-3.0644,-3.0661,-3.075,-3.0801,-3.0803,-3.0854,-3.0893,-3.0914,-3.0961,-3.0984,-3.1036,-3.1018,-3.1038,-3.1077,-3.1103,-3.1153,-3.1097,-3.1165,-3.1167,-3.1153,-3.1252,-3.1261,-3.1342,-3.1222,-3.1224,-3.1225,0,-3.0645,-3.0692,-3.0786,-3.0836,-3.0858,-3.0903,-3.0957,-3.1001,-3.1046,-3.1059,-3.1097,-3.1102,-3.1163,-3.1132,-3.1217,-3.1179,-3.1208,-3.1226,-3.1229,-3.1236,-3.12,-3.1261,-3.1368,-3.138,-3.1243,-3.1242,-3.1241,0,-3.0695,-3.0781,-3.085,-3.0874,-3.0933,-3.0965,-3.0992,-3.1035,-3.1068,-3.1116,-3.1138,-3.1192,-3.1221,-3.1263,-3.1284,-3.1259,-3.1369,-3.1338,-3.1382,-3.1382,-3.1404,-3.1402,-3.1517,-3.1423,-3.1423,-3.1422,-3.1422,0,-3.0779,-3.0837,-3.0874,-3.0916,-3.0982,-3.1002,-3.1067,-3.1092,-3.1132,-3.118,-3.1185,-3.123,-3.1255,-3.1304,-3.1321,-3.139,-3.1403,-3.1416,-3.142,-3.1416,-3.1414,-3.1435,-3.143,-3.1426,-3.1425,-3.1424,-3.1424,0,-3.0845,-3.0872,-3.0947,-3.0998,-3.1013,-3.1059,-3.1103,-3.1145,-3.1168,-3.1229,-3.1244,-3.128,-3.1339,-3.1364,-3.1436,-3.1447,-3.1527,-3.1526,-3.1511,-3.1513,-3.1555,-3.1551,-3.1687,-3.1707,-3.1599,-3.16,-3.1601,0,-3.0896,-3.0941,-3.0999,-3.1032,-3.1059,-3.1112,-3.1147,-3.117,-3.1206,-3.1263,-3.1298,-3.1357,-3.1405,-3.1499,-3.1532,-3.1587,-3.1588,-3.1632,-3.1596,-3.1592,-3.159,-3.1587,-3.1592,-3.1638,-3.164,-3.164,-3.1641,0,-3.0986,-3.0998,-3.1047,-3.1104,-3.1145,-3.119,-3.1234,-3.1261,-3.1291,-3.1331,-3.1392,-3.1429,-3.1504,-3.1563,-3.1621,-3.1649,-3.1651,-3.1653,-3.1666,-3.1662,-3.1652,-3.1659,-3.153,-3.1649,-3.1648,-3.1648,-3.1647,-3.1647,-3.1046,-3.1088,-3.1135,-3.1192,-3.1228,-3.1269,-3.1312,-3.1341,-3.1392,-3.1455,-3.1466,-3.1531,-3.1578,-3.1657,-3.1687,-3.1739,-3.1728,-3.1747,-3.1752,-3.1756,-3.1759,-3.1644,-3.175,-3.175,-3.1749,-3.1749,-3.1749,0,-3.1136,-3.1168,-3.122,-3.1282,-3.1328,-3.1326,-3.1376,-3.1414,-3.1471,-3.1515,-3.1564,-3.1635,-3.1693,-3.1731,-3.1791,-3.1825,-3.1827,-3.184,-3.1837,-3.1844,-3.1765,-3.1748,-3.1837,-3.1837,-3.1837,-3.1837,-3.1837,-3.1837,-3.1189,-3.1259,-3.1277,-3.1367,-3.1398,-3.1462,-3.1491,-3.153,-3.1566,-3.1645,-3.1694,-3.1719,-3.1762,-3.1825,-3.1879,-3.1889,-3.1911,-3.1924,-3.1933,-3.1858,-3.1849,-3.184,-3.1825,-3.1928,-3.1928,-3.2008,-3.2009,-3.2009]},{"header":{"parameterUnit":"m.s-1","parameterCategory":1,"la1":30.2991,"la2":30.254,"lo1":-89.0895,"lo2":-89.0444,"dy":0.0017,"dx":0.0017,"nx":28,"ny":28,"refTime":"2024-02-25T03:00:00:Z","depth":0,"parameterNumber":3,"parameterNumberName":"V-component_of_WINDS"},"data":[0,0,0,0,0,0,0,0,0,0,0,0,0,0,0,0,0,0,0,0,0,0,0,0,0,0,0,0,0,0,0,0,0,0,0,0,0,0,0,0,0,0,0,0,0,0,0,0,0,0,0,0,0,0,0,0,0,0,1.2252,1.2252,0,1.2273,1.2273,1.2273,1.2289,1.2289,1.2289,1.229,1.2307,1.2307,1.2308,0,0,0,0,0,0,0,0,0,0,0,0,0,1.2225,1.2225,1.2252,1.2252,1.2253,1.2273,1.2273,1.2273,1.2289,1.2289,1.229,1.229,1.2307,1.2307,1.2308,0,0,0,0,0,0,0,0,0,0,0,0,0,1.224,1.2225,1.2252,1.2263,1.2264,1.2273,1.2273,1.2273,1.2289,1.2289,1.229,1.229,1.2307,1.2307,1.2308,1.2306,0,0,1.2309,1.2309,0,0,0,0,0,0,0,0,1.2239,1.2241,1.2261,1.2262,1.2264,1.2279,1.227,1.2284,1.2289,1.228,1.229,1.229,1.2297,1.2298,1.2302,1.2307,1.2307,1.2309,1.231,1.231,1.231,0,0,0,0,0,0,0,1.2238,1.224,1.226,1.2261,1.2263,1.2266,1.2269,1.2273,1.2287,1.228,1.2282,1.2284,1.2298,1.2301,1.2302,1.2308,1.2309,1.231,1.231,1.231,1.2314,1.2314,0,0,0,0,0,0,1.2236,1.2239,1.2259,1.2261,1.2252,1.2267,1.2269,1.2274,1.2287,1.2289,1.2284,1.2285,1.23,1.2302,1.2303,1.2303,1.231,1.231,1.231,1.2314,1.2314,1.2314,0,0,0,0,0,0,1.2235,1.2237,1.2259,1.225,1.2253,1.2267,1.2271,1.2274,1.2277,1.2289,1.2292,1.2285,1.2301,1.2302,1.2306,1.2303,1.231,1.2311,1.2314,1.2314,1.2314,1.2301,0,0,0,0,0,0,1.2234,1.2237,1.2237,1.225,1.2254,1.2262,1.2271,1.2274,1.2278,1.228,1.2291,1.2293,1.2301,1.2305,1.2306,1.2304,1.2311,1.2314,1.2314,1.2314,1.2302,1.2301,1.2299,0,0,0,0,0,1.2233,1.2231,1.2237,1.2239,1.2254,1.2261,1.2263,1.2274,1.2278,1.2278,1.2286,1.2292,1.2304,1.2305,1.2307,1.2305,1.2315,1.2314,1.2314,1.2302,1.2301,1.2299,0,0,0,0,0,0,1.2215,1.2233,1.2239,1.2242,1.225,1.2264,1.2264,1.2271,1.2278,1.2278,1.229,1.2292,1.2295,1.23,1.2301,1.2304,1.231,1.231,1.2301,1.2299,1.2298,1.2297,1.2312,0,0,0,0,0,1.2211,1.2217,1.2232,1.2233,1.2237,1.225,1.2253,1.2261,1.227,1.2273,1.2281,1.2288,1.2294,1.2297,1.2302,1.2303,1.2306,1.2303,1.2301,1.23,1.23,1.2302,1.2301,1.2312,1.2312,1.2312,0,0,1.2204,1.2214,1.2217,1.2229,1.2237,1.2242,1.2252,1.2257,1.2261,1.2273,1.2277,1.2284,1.2293,1.2296,1.2297,1.23,1.2298,1.23,1.2299,1.2299,1.2302,1.23,1.23,1.2312,1.2312,1.2312,0,0,1.2192,1.2201,1.2203,1.2211,1.2223,1.2232,1.2233,1.2246,1.2251,1.2256,1.2266,1.2271,1.2279,1.2286,1.2291,1.2285,1.2291,1.2286,1.2279,1.2281,1.228,1.228,1.2278,1.2278,1.2286,1.2286,1.2286,0,1.2181,1.219,1.2203,1.2208,1.2213,1.2227,1.223,1.2236,1.2249,1.2252,1.2256,1.2269,1.2275,1.228,1.2279,1.2282,1.2283,1.2284,1.228,1.2279,1.2279,1.2277,1.2277,1.2285,1.2285,1.2285,1.2285,0,1.2176,1.2182,1.2182,1.2196,1.2202,1.2205,1.2219,1.2223,1.2231,1.2239,1.2245,1.2254,1.2263,1.2264,1.2271,1.2271,1.2272,1.2278,1.2283,1.2277,1.2276,1.2275,1.2284,1.2284,1.2284,1.2285,0,0,1.2152,1.2175,1.2175,1.2182,1.2197,1.2202,1.2207,1.2217,1.222,1.2229,1.2233,1.2242,1.2248,1.2253,1.226,1.2262,1.2258,1.2267,1.2268,1.2266,1.226,1.2256,1.2255,1.2263,1.2263,1.2263,1.2259,0,1.2143,1.2153,1.2166,1.2172,1.2178,1.2192,1.2196,1.2206,1.2215,1.2221,1.223,1.2236,1.2243,1.2247,1.2249,1.2258,1.2257,1.2259,1.2267,1.2267,1.2264,1.2254,1.225,1.2246,1.2259,1.2259,1.2259,0,1.2134,1.2144,1.2151,1.2168,1.2171,1.2174,1.2186,1.2192,1.2203,1.2209,1.2217,1.2226,1.2231,1.2237,1.2245,1.2246,1.225,1.2255,1.2255,1.2256,1.2262,1.2255,1.2244,1.2244,1.2258,1.2258,1.2258,0,1.2117,1.2132,1.2139,1.2144,1.2164,1.2166,1.2174,1.2186,1.2192,1.2202,1.2206,1.2215,1.222,1.2227,1.2239,1.2242,1.2246,1.2252,1.2251,1.2251,1.2251,1.225,1.2241,1.2253,1.2253,1.2253,1.2253,0,1.2106,1.2109,1.2132,1.2135,1.214,1.2155,1.216,1.2169,1.218,1.2186,1.2198,1.2203,1.2218,1.2225,1.2234,1.224,1.2241,1.2247,1.2249,1.2246,1.2245,1.2248,1.2249,1.2253,1.2253,1.2253,1.2253,0,1.2087,1.2102,1.211,1.2129,1.2134,1.2137,1.2152,1.2157,1.2167,1.2174,1.2177,1.2193,1.2202,1.2214,1.2226,1.2232,1.2237,1.2241,1.2234,1.2235,1.2233,1.2234,1.2225,1.2225,1.2238,1.2237,1.2237,0,1.2079,1.2083,1.2103,1.2108,1.2117,1.2125,1.2132,1.2147,1.2154,1.2169,1.2171,1.2182,1.2191,1.2204,1.2216,1.2226,1.223,1.2227,1.2231,1.2229,1.2231,1.223,1.2231,1.2225,1.2225,1.2225,1.2225,0,1.2064,1.2072,1.2081,1.2094,1.2103,1.2113,1.2124,1.2128,1.2146,1.2152,1.2163,1.217,1.2184,1.2194,1.2206,1.2213,1.2222,1.2223,1.2224,1.222,1.2216,1.2219,1.2231,1.2223,1.2223,1.2223,1.2224,1.2224,1.205,1.2055,1.207,1.2081,1.2092,1.2103,1.2108,1.2121,1.213,1.2143,1.2152,1.2162,1.2175,1.2192,1.22,1.2208,1.2211,1.2211,1.2211,1.2211,1.221,1.2215,1.221,1.221,1.221,1.221,1.221,0,1.2036,1.2047,1.2058,1.2074,1.2083,1.2092,1.2106,1.2112,1.2122,1.2134,1.2143,1.2156,1.2166,1.218,1.2192,1.2195,1.22,1.2198,1.2198,1.2199,1.2206,1.2205,1.2194,1.2194,1.2194,1.2194,1.2194,1.2194,1.203,1.2038,1.2048,1.2063,1.2074,1.2085,1.2092,1.2102,1.2112,1.2126,1.2136,1.2146,1.2159,1.2172,1.2182,1.2186,1.2189,1.2186,1.2191,1.2197,1.2199,1.22,1.2199,1.2187,1.2187,1.2184,1.2184,1.2184]}]]